[[{"header":{"parameterUnit":"m.s-1","parameterCategory":1,"la1":30.2991,"la2":30.254,"lo1":-89.0895,"lo2":-89.0444,"dy":0.0017,"dx":0.0017,"nx":28,"ny":28,"refTime":"2025-05-18T03:00:00:Z","depth":0,"parameterNumber":2,"parameterNumberName":"U-component_of_WINDS"},"data":[0,0,0,0,0,0,0,0,0,0,0,0,0,0,0,0,0,0,0,0,0,0,0,0,0,0,0,0,0,0,0,0,0,0,0,0,0,0,0,0,0,0,0,0,0,0,0,0,0,0,0,0,0,0,0,0,0,0,2.3254,2.3255,0,2.3361,2.3362,2.3363,2.3342,2.334,2.3338,2.3336,2.3448,2.3452,2.3457,0,0,0,0,0,0,0,0,0,0,0,0,0,2.3035,2.3039,2.3254,2.3256,2.3257,2.336,2.3362,2.3363,2.3343,2.334,2.3338,2.3336,2.3446,2.3452,2.3457,0,0,0,0,0,0,0,0,0,0,0,0,0,2.3135,2.304,2.3254,2.3259,2.326,2.336,2.3362,2.3364,2.3343,2.334,2.3337,2.3335,2.3444,2.3451,2.3458,2.356,0,0,2.348,2.3483,0,0,0,0,0,0,0,0,2.3129,2.3143,2.3257,2.3259,2.3261,2.3335,2.3325,2.343,2.3344,2.3312,2.3336,2.3333,2.3413,2.3422,2.3449,2.3566,2.357,2.3481,2.3485,2.3488,2.349,0,0,0,0,0,0,0,2.3122,2.3138,2.3296,2.3259,2.3261,2.3256,2.3267,2.3345,2.3377,2.3314,2.3313,2.3326,2.3413,2.3442,2.3451,2.3572,2.3481,2.3487,2.3491,2.3494,2.3778,2.3781,0,0,0,0,0,0,2.3113,2.3132,2.3293,2.33,2.3186,2.3263,2.3275,2.3314,2.3376,2.3383,2.3328,2.3324,2.3431,2.3443,2.3455,2.3578,2.3488,2.3495,2.3499,2.3774,2.3778,2.3782,0,0,0,0,0,0,2.3109,2.3128,2.3289,2.3216,2.3236,2.327,2.3314,2.3318,2.3346,2.3387,2.3393,2.3351,2.3429,2.3445,2.3534,2.3582,2.3498,2.3505,2.3771,2.3776,2.378,2.3825,0,0,0,0,0,0,2.3102,2.3126,2.3165,2.3217,2.324,2.3366,2.3317,2.3322,2.3358,2.3355,2.341,2.3417,2.3428,2.3524,2.3541,2.359,2.351,2.3766,2.3773,2.3779,2.382,2.3831,2.3841,0,0,0,0,0,2.3095,2.3174,2.3167,2.3186,2.3289,2.3368,2.3382,2.3393,2.3362,2.3402,2.3428,2.3415,2.3574,2.3533,2.3553,2.3604,2.3763,2.3771,2.3778,2.3815,2.3829,2.3841,0,0,0,0,0,0,2.3128,2.3181,2.3174,2.3272,2.3316,2.3365,2.3415,2.3407,2.3461,2.3455,2.3467,2.348,2.3571,2.3597,2.355,2.3706,2.3664,2.3676,2.3686,2.3699,2.371,2.3701,2.3516,0,0,0,0,0,2.3147,2.3206,2.325,2.3332,2.3354,2.3381,2.3416,2.3421,2.3467,2.3485,2.3518,2.3563,2.3624,2.3663,2.3721,2.3824,2.3835,2.3869,2.3879,2.3888,2.3898,2.3953,2.3969,2.3806,2.3806,2.3806,0,0,2.3186,2.3222,2.3259,2.334,2.3374,2.3436,2.3397,2.3464,2.351,2.3496,2.3581,2.3607,2.3659,2.3755,2.3799,2.3779,2.3945,2.3897,2.3904,2.3909,2.3963,2.3978,2.3992,2.3811,2.381,2.3809,0,0,2.3289,2.3323,2.3395,2.343,2.3482,2.3499,2.3517,2.3567,2.3583,2.3669,2.3659,2.3715,2.3818,2.3855,2.3888,2.4005,2.3995,2.4023,2.4078,2.4133,2.4146,2.4157,2.4198,2.4213,2.4033,2.4033,2.4033,0,2.3332,2.3424,2.3433,2.3501,2.3537,2.3526,2.36,2.3634,2.3702,2.3727,2.3704,2.3833,2.3867,2.3972,2.4,2.4027,2.4047,2.4017,2.4143,2.4154,2.4165,2.4205,2.422,2.4036,2.4036,2.4036,2.4035,0,2.3473,2.3537,2.359,2.3655,2.3697,2.3767,2.3788,2.3829,2.383,2.385,2.3937,2.3978,2.4043,2.4069,2.4071,2.4174,2.4159,2.414,2.4098,2.4184,2.4221,2.4236,2.4041,2.4039,2.4039,2.4038,0,0,2.36,2.367,2.3689,2.3718,2.3775,2.3825,2.3895,2.3958,2.3993,2.4041,2.4099,2.4187,2.4169,2.4206,2.4212,2.426,2.4349,2.4234,2.4235,2.4253,2.4464,2.4478,2.4495,2.4343,2.4346,2.4348,2.4459,0,2.3708,2.383,2.3841,2.3951,2.401,2.4001,2.4062,2.4104,2.4124,2.4178,2.42,2.4262,2.4233,2.4255,2.4302,2.4328,2.4391,2.432,2.4398,2.44,2.4384,2.4515,2.453,2.4633,2.4474,2.4476,2.4478,0,2.385,2.3901,2.4017,2.4065,2.409,2.4144,2.4203,2.4254,2.4301,2.4313,2.4354,2.4353,2.4426,2.4381,2.4481,2.4433,2.4465,2.4483,2.4487,2.4494,2.4444,2.4525,2.4666,2.4681,2.4501,2.4499,2.4498,0,2.393,2.4028,2.4109,2.4135,2.4193,2.4232,2.4258,2.4302,2.4339,2.4391,2.4415,2.4474,2.4507,2.4553,2.4569,2.4535,2.4668,2.4625,2.4679,2.4679,2.4707,2.4705,2.4855,2.4729,2.4729,2.4729,2.4729,0,2.4049,2.412,2.4146,2.4196,2.4276,2.4288,2.4366,2.439,2.443,2.4485,2.4481,2.4533,2.4551,2.4606,2.4619,2.47,2.4715,2.4726,2.4728,2.4726,2.4724,2.4747,2.474,2.4733,2.4732,2.4731,2.4731,0,2.4151,2.4171,2.426,2.4308,2.4321,2.4378,2.4419,2.4467,2.4487,2.4556,2.4573,2.4604,2.4669,2.4689,2.4768,2.4776,2.487,2.4866,2.4854,2.4854,2.4906,2.4901,2.5076,2.5099,2.4958,2.496,2.4961,0,2.4225,2.4279,2.4333,2.4369,2.4396,2.4455,2.4492,2.4506,2.4546,2.4603,2.4645,2.4709,2.476,2.4864,2.4894,2.4954,2.4951,2.5008,2.496,2.4956,2.4951,2.4947,2.4953,2.5017,2.5019,2.502,2.5021,0,2.4354,2.4361,2.4415,2.4473,2.4518,2.4564,2.4609,2.4639,2.4659,2.4704,2.4769,2.4809,2.4889,2.4952,2.5013,2.504,2.5034,2.5036,2.5051,2.5049,2.5039,2.5044,2.4877,2.5031,2.503,2.503,2.5029,2.5029,2.4444,2.4491,2.4536,2.4596,2.4631,2.4673,2.4721,2.4746,2.4801,2.4866,2.4871,2.4942,2.4987,2.5068,2.5099,2.5154,2.5138,2.5161,2.5167,2.5172,2.5175,2.503,2.5166,2.5165,2.5165,2.5165,2.5165,0,2.4572,2.46,2.4655,2.4717,2.4765,2.4754,2.4803,2.4844,2.4906,2.4949,2.4999,2.5075,2.5136,2.517,2.5231,2.5269,2.5268,2.5285,2.5282,2.5288,2.5187,2.5167,2.5285,2.5285,2.5285,2.5285,2.5285,2.5285,2.4644,2.4724,2.4736,2.4833,2.4861,2.493,2.4959,2.4997,2.5031,2.5115,2.5166,2.5188,2.5227,2.5291,2.5347,2.5356,2.5378,2.5397,2.5403,2.5308,2.5296,2.5284,2.5265,2.5402,2.5402,2.55,2.5501,2.5501]},{"header":{"parameterUnit":"m.s-1","parameterCategory":1,"la1":30.2991,"la2":30.254,"lo1":-89.0895,"lo2":-89.0444,"dy":0.0017,"dx":0.0017,"nx":28,"ny":28,"refTime":"2025-05-18T03:00:00:Z","depth":0,"parameterNumber":3,"parameterNumberName":"V-component_of_WINDS"},"data":[0,0,0,0,0,0,0,0,0,0,0,0,0,0,0,0,0,0,0,0,0,0,0,0,0,0,0,0,0,0,0,0,0,0,0,0,0,0,0,0,0,0,0,0,0,0,0,0,0,0,0,0,0,0,0,0,0,0,2.9141,2.9142,0,2.924,2.9241,2.9243,2.9237,2.9236,2.9234,2.9233,2.9331,2.9335,2.9339,0,0,0,0,0,0,0,0,0,0,0,0,0,2.8945,2.8948,2.9141,2.9143,2.9144,2.924,2.9242,2.9243,2.9237,2.9236,2.9234,2.9232,2.933,2.9335,2.934,0,0,0,0,0,0,0,0,0,0,0,0,0,2.9035,2.8949,2.9141,2.9153,2.9155,2.924,2.9242,2.9243,2.9238,2.9235,2.9233,2.9231,2.9329,2.9334,2.934,2.942,0,0,2.9358,2.9361,0,0,0,0,0,0,0,0,2.903,2.9043,2.915,2.9152,2.9154,2.9224,2.9208,2.9302,2.9238,2.9206,2.9233,2.923,2.9297,2.9306,2.9329,2.9424,2.9428,2.9359,2.9362,2.9365,2.9367,0,0,0,0,0,0,0,2.9024,2.9038,2.918,2.9151,2.9154,2.9152,2.9163,2.9226,2.9262,2.9209,2.9209,2.922,2.9298,2.9323,2.9331,2.943,2.9359,2.9364,2.9368,2.937,2.9595,2.9597,0,0,0,0,0,0,2.9015,2.9033,2.9177,2.9183,2.9086,2.9157,2.9169,2.9204,2.9262,2.9268,2.9222,2.922,2.9314,2.9324,2.9335,2.9431,2.9365,2.9371,2.9374,2.9592,2.9595,2.9598,0,0,0,0,0,0,2.9011,2.9028,2.9173,2.9108,2.9127,2.9163,2.9202,2.9207,2.9232,2.9272,2.9278,2.9241,2.9313,2.9326,2.9399,2.9435,2.9373,2.9379,2.9589,2.9593,2.9596,2.9626,0,0,0,0,0,0,2.9006,2.9027,2.9058,2.9109,2.913,2.9237,2.9204,2.921,2.9243,2.924,2.9291,2.9298,2.9312,2.939,2.9404,2.9442,2.9383,2.9586,2.9591,2.9595,2.9622,2.963,2.9637,0,0,0,0,0,2.8999,2.9062,2.906,2.9077,2.917,2.9239,2.9251,2.9267,2.9246,2.9277,2.9302,2.9296,2.9428,2.9397,2.9414,2.9453,2.9584,2.959,2.9595,2.9618,2.9628,2.9637,0,0,0,0,0,0,2.9014,2.9069,2.9067,2.9149,2.9189,2.9238,2.9278,2.9277,2.9323,2.9319,2.9336,2.9348,2.942,2.9444,2.9408,2.9533,2.9503,2.9512,2.9515,2.9525,2.9532,2.9526,2.9388,0,0,0,0,0,2.9026,2.9079,2.9124,2.9191,2.9212,2.9241,2.9272,2.9281,2.9323,2.934,2.937,2.9411,2.9461,2.9494,2.9543,2.9624,2.9635,2.966,2.9667,2.9673,2.9681,2.9726,2.9737,2.9616,2.9616,2.9615,0,0,2.9053,2.909,2.9122,2.9195,2.9228,2.928,2.9256,2.9313,2.9352,2.9348,2.9419,2.9442,2.9488,2.9566,2.9601,2.9588,2.9717,2.968,2.9685,2.9689,2.9732,2.9744,2.9754,2.9619,2.9619,2.9618,0,0,2.913,2.9163,2.9223,2.9256,2.9306,2.9325,2.9339,2.9388,2.9404,2.9475,2.9474,2.9519,2.9606,2.9639,2.9667,2.9756,2.9752,2.9771,2.9811,2.9854,2.9864,2.9872,2.9904,2.9915,2.9778,2.9778,2.9778,0,2.9157,2.9238,2.9254,2.9312,2.9344,2.9343,2.9404,2.9435,2.9497,2.9519,2.9503,2.9612,2.9643,2.9728,2.9749,2.9772,2.9788,2.9765,2.9861,2.987,2.9878,2.9908,2.992,2.978,2.978,2.978,2.978,0,2.9269,2.9324,2.9367,2.9429,2.9465,2.9524,2.9548,2.9583,2.9588,2.9609,2.9681,2.9718,2.9774,2.9795,2.98,2.9881,2.9871,2.9857,2.9828,2.9891,2.992,2.9932,2.9783,2.9782,2.9782,2.9781,0,0,2.9358,2.9428,2.9443,2.9471,2.9525,2.9568,2.9626,2.9682,2.9712,2.9755,2.9804,2.9877,2.9865,2.9897,2.9906,2.9944,3.0012,2.9926,2.9927,2.9941,3.0102,3.0112,3.0126,3.0009,3.0011,3.0013,3.0099,0,2.9441,2.9546,2.9562,2.9653,2.9705,2.9705,2.9755,2.9794,2.9814,2.986,2.9882,2.9934,2.9914,2.9933,2.9971,2.9995,3.0044,2.9989,3.0054,3.0056,3.0044,3.0141,3.0152,3.0231,3.011,3.0112,3.0113,0,2.9551,2.9598,2.9695,2.9743,2.9765,2.981,2.9863,2.9907,2.995,2.9962,2.9997,3.0001,3.0061,3.0028,3.011,3.0072,3.0099,3.0115,3.0119,3.0126,3.0089,3.0151,3.0257,3.0269,3.0131,3.013,3.0128,0,2.9607,2.9694,2.9764,2.9788,2.9845,2.9877,2.9901,2.9942,2.9975,3.002,3.0041,3.0092,3.012,3.0159,3.0176,3.0151,3.0257,3.0226,3.0268,3.0268,3.0291,3.029,3.0403,3.0308,3.0307,3.0307,3.0307,0,2.9698,2.9758,2.979,2.9833,2.9899,2.9917,2.9981,3.0005,3.0042,3.0088,3.009,3.0134,3.0154,3.02,3.0214,3.0279,3.0292,3.0303,3.0306,3.0303,3.0302,3.0322,3.0317,3.031,3.031,3.0309,3.0308,0,2.9773,2.9797,2.9873,2.992,2.9934,2.998,3.0021,3.0062,3.0081,3.0141,3.0155,3.0186,3.0241,3.0262,3.0328,3.0337,3.0413,3.0411,3.0399,3.04,3.0441,3.0437,3.0572,3.0591,3.0482,3.0483,3.0484,0,2.983,2.9876,2.9928,2.996,2.9987,3.0038,3.0071,3.0089,3.0124,3.0176,3.0211,3.0265,3.031,3.0397,3.0424,3.0475,3.0475,3.0518,3.0482,3.0478,3.0476,3.0473,3.0478,3.0525,3.0526,3.0527,3.0528,0,2.9928,2.9938,2.9986,3.0039,3.0079,3.0121,3.0162,3.0188,3.0212,3.025,3.0307,3.0341,3.0409,3.0463,3.0515,3.054,3.0538,3.0539,3.0552,3.055,3.0541,3.0547,3.0418,3.0536,3.0535,3.0535,3.0534,3.0534,2.9996,3.0037,3.0081,3.0134,3.0167,3.0205,3.0247,3.0272,3.0319,3.0377,3.0384,3.0445,3.0485,3.0555,3.0582,3.0628,3.0617,3.0635,3.064,3.0644,3.0647,3.0533,3.0638,3.0638,3.0637,3.0637,3.0637,0,3.0095,3.0123,3.0172,3.023,3.0272,3.0268,3.0313,3.0348,3.0402,3.044,3.0485,3.0549,3.0601,3.0633,3.0685,3.0716,3.0717,3.073,3.0728,3.0733,3.0654,3.0639,3.0728,3.0728,3.0728,3.0728,3.0728,3.0728,3.0152,3.0221,3.0235,3.032,3.0348,3.0408,3.0434,3.0469,3.05,3.0573,3.0616,3.0637,3.0673,3.0727,3.0775,3.0783,3.0802,3.0816,3.0823,3.0748,3.0739,3.073,3.0715,3.082,3.082,3.0898,3.0898,3.0899]}]]